Location: George Washington National Forest Helicopter Landing Site
(38.6463°N, 79.0851°W)
Time: 11:26:15
(UTC-04:00)

SR - All Passes

Search period start: 21 August 2019 00:00
Search period end: 31 August 2019 00:00
Orbit: 578 x 878 km, 66.7° (Epoch: 20 August)

Date Brightness Start Highest point End Pass type
(mag) Time Alt. Az. Time Alt. Az. Time Alt. Az.
21 Aug - 00:33:43 10° WNW 00:37:52 21° WSW 00:42:08 10° SSW visible
21 Aug - 13:20:18 10° S 13:24:25 44° ESE 13:28:50 10° NE daylight
21 Aug - 15:03:26 10° W 15:06:43 20° NW 15:10:13 10° N daylight
21 Aug - 22:01:26 10° N 22:06:18 31° NE 22:11:23 10° ESE visible
21 Aug - 23:43:14 10° NW 23:48:29 41° WSW 23:53:57 10° S visible
22 Aug - 12:31:59 10° SSE 12:35:06 19° ESE 12:38:21 10° ENE daylight
22 Aug - 14:12:38 10° SW 14:16:46 38° NW 14:21:13 10° NNE daylight
22 Aug - 21:12:36 10° N 21:16:17 18° NE 21:20:03 10° E visible
22 Aug - 22:53:21 10° NNW 22:58:57 81° WSW 23:04:50 10° SSE visible
23 Aug - 00:39:18 10° W 00:40:16 10° WSW 00:41:15 10° WSW visible
23 Aug - 13:22:40 10° SSW 13:27:02 85° WNW 13:31:47 10° NNE daylight
23 Aug - 15:08:26 10° WNW 15:09:58 11° NW 15:11:31 10° NNW daylight
23 Aug - 22:03:48 10° NNW 22:09:16 53° ENE 22:14:59 10° SE visible
23 Aug - 23:46:44 10° WNW 23:51:02 23° WSW 23:55:27 10° SSW visible
24 Aug - 12:33:26 10° S 12:37:32 41° ESE 12:41:56 10° NE daylight
24 Aug - 14:16:22 10° W 14:19:47 21° NW 14:23:26 10° N daylight
24 Aug - 21:14:35 10° N 21:19:25 29° NE 21:24:26 10° ESE visible
24 Aug - 22:56:18 10° NW 23:01:38 44° WSW 23:07:10 10° S visible
25 Aug - 11:45:15 10° SSE 11:48:14 18° ESE 11:51:22 10° ENE daylight
25 Aug - 13:25:40 10° SW 13:29:51 41° NW 13:34:23 10° NNE daylight
25 Aug - 20:25:48 10° N 20:29:21 17° NE 20:33:01 10° E visible
25 Aug - 22:06:27 10° NNW 22:12:05 86° WSW 22:17:59 10° SSE visible
25 Aug - 23:51:43 10° W 23:53:27 11° WSW 23:55:11 10° WSW visible
26 Aug - 12:35:45 10° SSW 12:40:08 89° ESE 12:44:55 10° NNE daylight
26 Aug - 14:21:08 10° WNW 14:23:01 12° NW 14:24:57 10° NNW daylight
26 Aug - 21:16:56 10° NNW 21:22:23 51° ENE 21:28:05 10° SE visible
26 Aug - 22:59:44 10° NW 23:04:11 24° WSW 23:08:46 10° SSW visible
27 Aug - 11:46:36 10° S 11:50:39 38° ESE 11:55:01 10° NE daylight
27 Aug - 13:29:18 10° WSW 13:32:52 22° NW 13:36:39 10° N daylight
27 Aug - 20:27:45 10° N 20:32:31 28° NE 20:37:28 10° ESE visible
27 Aug - 22:09:22 10° NW 22:14:47 47° WSW 22:20:23 10° S visible
28 Aug - 10:58:32 10° SE 11:01:22 17° ESE 11:04:21 10° ENE daylight
28 Aug - 12:38:41 10° SW 12:42:56 44° NW 12:47:32 10° NNE daylight
28 Aug - 19:39:00 10° N 19:42:26 16° NE 19:45:57 10° E daylight
28 Aug - 21:19:33 10° NNW 21:25:14 90° NE 21:31:08 10° SSE visible
28 Aug - 23:04:24 10° W 23:06:37 12° WSW 23:08:52 10° SW visible
29 Aug - 11:48:51 10° SSW 11:53:14 83° ESE 11:58:02 10° NNE daylight
29 Aug - 13:33:54 10° WNW 13:36:03 13° NW 13:38:18 10° NNW daylight
29 Aug - 20:30:04 10° NNW 20:35:30 48° ENE 20:41:10 10° SE visible
29 Aug - 22:12:45 10° NW 22:17:21 26° WSW 22:22:04 10° SSW visible
30 Aug - 10:59:46 10° S 11:03:47 36° ESE 11:08:05 10° NE daylight
30 Aug - 12:42:15 10° WSW 12:45:56 24° NW 12:49:52 10° N daylight
30 Aug - 19:40:54 10° N 19:45:36 27° NE 19:50:29 10° ESE daylight
30 Aug - 21:22:27 10° NW 21:27:56 50° WSW 21:33:36 10° S visible
